Time,TemperatureF,DewpointF,PressureIn,WindDirection,WindDirectionDegrees,WindSpeedMPH,WindSpeedGustMPH,Humidity,HourlyPrecipIn,Conditions,Clouds,dailyrainin,SoftwareType,DateUTC
2013-10-15 00:00:00,58.4,30.2,29.89,NNE,15,2.0,4.0,34,0.00,,,0.00,VWS V14.01,2013-10-15 07:00:00,
2013-10-15 00:02:00,58.5,30.2,29.89,NNE,13,2.0,4.0,34,0.00,,,0.00,VWS V14.01,2013-10-15 07:02:00,
2013-10-15 00:05:00,58.4,30.2,29.89,North,9,3.0,4.0,34,0.00,,,0.00,VWS V14.01,2013-10-15 07:05:00,
2013-10-15 00:07:00,58.4,30.2,29.89,NNE,16,3.0,4.0,34,0.00,,,0.00,VWS V14.01,2013-10-15 07:07:00,
2013-10-15 00:10:00,58.4,30.2,29.89,North,5,3.0,5.0,34,0.00,,,0.00,VWS V14.01,2013-10-15 07:10:00,
2013-10-15 00:12:00,58.2,30.0,29.89,North,360,2.0,4.0,34,0.00,,,0.00,VWS V14.01,2013-10-15 07:12:00,
2013-10-15 00:15:00,58.1,29.9,29.89,North,5,2.0,4.0,34,0.00,,,0.00,VWS V14.01,2013-10-15 07:15:00,
2013-10-15 00:17:00,58.1,29.9,29.89,North,5,2.0,4.0,34,0.00,,,0.00,VWS V14.01,2013-10-15 07:17:00,
2013-10-15 00:20:00,58.1,29.9,29.89,North,9,1.0,4.0,34,0.00,,,0.00,VWS V14.01,2013-10-15 07:20:00,
2013-10-15 00:22:00,58.1,29.9,29.89,North,11,3.0,3.0,34,0.00,,,0.00,VWS V14.01,2013-10-15 07:22:00,
2013-10-15 00:25:00,58.1,30.6,29.89,NNE,15,4.0,4.0,35,0.00,,,0.00,VWS V14.01,2013-10-15 07:25:00,
2013-10-15 00:27:00,58.0,30.5,29.89,North,5,2.0,4.0,35,0.00,,,0.00,VWS V14.01,2013-10-15 07:27:00,
2013-10-15 00:30:00,57.9,30.4,29.89,North,355,3.0,4.0,35,0.00,,,0.00,VWS V14.01,2013-10-15 07:30:00,
2013-10-15 00:32:00,57.6,30.2,29.89,North,355,1.0,4.0,35,0.00,,,0.00,VWS V14.01,2013-10-15 07:32:00,
2013-10-15 00:35:00,57.2,30.5,29.89,North,355,0.0,4.0,36,0.00,,,0.00,VWS V14.01,2013-10-15 07:35:00,
2013-10-15 00:37:00,56.8,30.1,29.89,North,355,1.0,2.0,36,0.00,,,0.00,VWS V14.01,2013-10-15 07:37:00,
2013-10-15 00:40:00,56.6,30.0,29.89,North,355,0.0,2.0,36,0.00,,,0.00,VWS V14.01,2013-10-15 07:40:00,
2013-10-15 00:42:00,56.4,29.8,29.89,North,355,0.0,1.0,36,0.00,,,0.00,VWS V14.01,2013-10-15 07:42:00,
2013-10-15 00:45:00,56.1,30.2,29.89,North,355,0.0,1.0,37,0.00,,,0.00,VWS V14.01,2013-10-15 07:45:00,
2013-10-15 00:47:00,55.9,30.0,29.89,North,355,0.0,1.0,37,0.00,,,0.00,VWS V14.01,2013-10-15 07:47:00,
2013-10-15 00:50:00,55.6,29.8,29.89,North,355,0.0,1.0,37,0.00,,,0.00,VWS V14.01,2013-10-15 07:50:00,
2013-10-15 00:52:00,55.4,30.2,29.89,North,355,0.0,2.0,38,0.00,,,0.00,VWS V14.01,2013-10-15 07:52:00,
2013-10-15 00:55:00,55.3,30.1,29.89,North,355,1.0,2.0,38,0.00,,,0.00,VWS V14.01,2013-10-15 07:55:00,
2013-10-15 00:57:00,55.5,29.7,29.89,North,355,2.0,3.0,37,0.00,,,0.00,VWS V14.01,2013-10-15 07:57:00,
2013-10-15 01:00:00,55.8,29.9,29.89,North,355,1.0,4.0,37,0.00,,,0.00,VWS V14.01,2013-10-15 08:00:00,
2013-10-15 01:02:00,56.0,30.1,29.89,North,355,1.0,4.0,37,0.00,,,0.00,VWS V14.01,2013-10-15 08:02:00,
2013-10-15 01:05:00,56.0,30.1,29.89,North,355,0.0,4.0,37,0.00,,,0.00,VWS V14.01,2013-10-15 08:05:00,
2013-10-15 01:07:00,56.1,30.2,29.89,North,355,2.0,2.0,37,0.00,,,0.00,VWS V14.01,2013-10-15 08:07:00,
2013-10-15 01:10:00,56.4,30.5,29.88,NNW,341,3.0,6.0,37,0.00,,,0.00,VWS V14.01,2013-10-15 08:10:00,
2013-10-15 01:12:00,56.7,30.1,29.89,North,355,3.0,4.0,36,0.00,,,0.00,VWS V14.01,2013-10-15 08:12:00,
2013-10-15 01:15:00,57.0,30.3,29.89,North,360,3.0,4.0,36,0.00,,,0.00,VWS V14.01,2013-10-15 08:15:00,
2013-10-15 01:17:00,57.3,30.6,29.89,North,351,3.0,4.0,36,0.00,,,0.00,VWS V14.01,2013-10-15 08:17:00,
2013-10-15 01:20:00,57.4,30.0,29.88,North,355,1.0,4.0,35,0.00,,,0.00,VWS V14.01,2013-10-15 08:20:00,
2013-10-15 01:22:00,57.5,30.1,29.88,North,355,1.0,3.0,35,0.00,,,0.00,VWS V14.01,2013-10-15 08:22:00,
2013-10-15 01:25:00,57.4,30.0,29.88,North,355,2.0,3.0,35,0.00,,,0.00,VWS V14.01,2013-10-15 08:25:00,
2013-10-15 01:27:00,57.1,29.7,29.88,North,355,3.0,3.0,35,0.00,,,0.00,VWS V14.01,2013-10-15 08:27:00,
2013-10-15 01:30:00,56.9,29.5,29.88,North,355,2.0,3.0,35,0.00,,,0.00,VWS V14.01,2013-10-15 08:30:00,
2013-10-15 01:32:00,56.9,29.5,29.88,NNW,346,3.0,4.0,35,0.00,,,0.00,VWS V14.01,2013-10-15 08:32:00,
2013-10-15 01:35:00,57.1,29.7,29.88,North,355,3.0,4.0,35,0.00,,,0.00,VWS V14.01,2013-10-15 08:35:00,
2013-10-15 01:37:00,57.3,29.9,29.88,NNW,339,4.0,5.0,35,0.00,,,0.00,VWS V14.01,2013-10-15 08:37:00,
2013-10-15 01:40:00,57.4,30.0,29.88,NNW,342,4.0,5.0,35,0.00,,,0.00,VWS V14.01,2013-10-15 08:40:00,
2013-10-15 01:42:00,57.7,30.3,29.88,NNW,344,2.0,4.0,35,0.00,,,0.00,VWS V14.01,2013-10-15 08:42:00,
2013-10-15 01:45:00,57.9,30.4,29.88,NNW,343,3.0,4.0,35,0.00,,,0.00,VWS V14.01,2013-10-15 08:45:00,
2013-10-15 01:47:00,58.2,30.0,29.88,NNW,346,3.0,5.0,34,0.00,,,0.00,VWS V14.01,2013-10-15 08:47:00,
2013-10-15 01:50:00,58.4,30.2,29.88,North,355,1.0,5.0,34,0.00,,,0.00,VWS V14.01,2013-10-15 08:50:00,
2013-10-15 01:52:00,58.6,30.3,29.87,NNW,334,0.0,4.0,34,0.00,,,0.00,VWS V14.01,2013-10-15 08:52:00,
2013-10-15 01:55:00,58.8,30.5,29.87,NNW,334,0.0,4.0,34,0.00,,,0.00,VWS V14.01,2013-10-15 08:55:00,
2013-10-15 01:57:00,59.0,30.7,29.87,NNW,336,2.0,3.0,34,0.00,,,0.00,VWS V14.01,2013-10-15 08:57:00,
2013-10-15 02:00:00,58.9,29.9,29.87,NNW,337,0.0,3.0,33,0.00,,,0.00,VWS V14.01,2013-10-15 09:00:00,
2013-10-15 02:02:00,58.7,30.4,29.87,NNW,337,2.0,2.0,34,0.00,,,0.00,VWS V14.01,2013-10-15 09:02:00,
2013-10-15 02:05:00,58.5,30.2,29.87,NNW,338,2.0,3.0,34,0.00,,,0.00,VWS V14.01,2013-10-15 09:05:00,
2013-10-15 02:07:00,58.2,30.0,29.87,NNW,340,1.0,3.0,34,0.00,,,0.00,VWS V14.01,2013-10-15 09:07:00,
2013-10-15 02:10:00,57.9,29.7,29.87,North,360,2.0,3.0,34,0.00,,,0.00,VWS V14.01,2013-10-15 09:10:00,
2013-10-15 02:12:00,57.6,29.5,29.87,North,5,2.0,3.0,34,0.00,,,0.00,VWS V14.01,2013-10-15 09:12:00,
2013-10-15 02:15:00,57.4,29.3,29.87,North,360,1.0,4.0,34,0.00,,,0.00,VWS V14.01,2013-10-15 09:15:00,
2013-10-15 02:17:00,57.4,30.0,29.87,North,5,2.0,3.0,35,0.00,,,0.00,VWS V14.01,2013-10-15 09:17:00,
2013-10-15 02:20:00,57.4,30.0,29.87,North,360,4.0,4.0,35,0.00,,,0.00,VWS V14.01,2013-10-15 09:20:00,
2013-10-15 02:22:00,57.2,29.8,29.87,North,360,3.0,4.0,35,0.00,,,0.00,VWS V14.01,2013-10-15 09:22:00,
2013-10-15 02:25:00,57.1,29.7,29.87,North,9,2.0,4.0,35,0.00,,,0.00,VWS V14.01,2013-10-15 09:25:00,
2013-10-15 02:27:00,56.9,29.5,29.87,North,5,1.0,3.0,35,0.00,,,0.00,VWS V14.01,2013-10-15 09:27:00,
2013-10-15 02:30:00,56.8,29.5,29.87,North,5,1.0,3.0,35,0.00,,,0.00,VWS V14.01,2013-10-15 09:30:00,
2013-10-15 02:32:00,56.7,29.4,29.87,North,5,0.0,2.0,35,0.00,,,0.00,VWS V14.01,2013-10-15 09:32:00,
2013-10-15 02:35:00,56.8,29.5,29.87,North,5,0.0,3.0,35,0.00,,,0.00,VWS V14.01,2013-10-15 09:35:00,
2013-10-15 02:37:00,57.0,29.6,29.86,North,5,1.0,2.0,35,0.00,,,0.00,VWS V14.01,2013-10-15 09:37:00,
2013-10-15 02:40:00,57.2,29.8,29.86,North,5,1.0,2.0,35,0.00,,,0.00,VWS V14.01,2013-10-15 09:40:00,
2013-10-15 02:42:00,57.3,29.9,29.86,North,5,2.0,3.0,35,0.00,,,0.00,VWS V14.01,2013-10-15 09:42:00,
2013-10-15 02:45:00,57.3,29.9,29.86,North,5,1.0,3.0,35,0.00,,,0.00,VWS V14.01,2013-10-15 09:45:00,
2013-10-15 02:47:00,57.2,29.1,29.86,North,5,0.0,2.0,34,0.00,,,0.00,VWS V14.01,2013-10-15 09:47:00,
2013-10-15 02:50:00,57.0,29.6,29.86,North,5,1.0,2.0,35,0.00,,,0.00,VWS V14.01,2013-10-15 09:50:00,
2013-10-15 02:52:00,56.7,29.4,29.86,North,5,0.0,1.0,35,0.00,,,0.00,VWS V14.01,2013-10-15 09:52:00,
2013-10-15 02:55:00,56.3,29.0,29.86,North,5,1.0,1.0,35,0.00,,,0.00,VWS V14.01,2013-10-15 09:55:00,
2013-10-15 02:57:00,56.0,28.8,29.86,North,5,1.0,2.0,35,0.00,,,0.00,VWS V14.01,2013-10-15 09:57:00,
2013-10-15 03:00:00,55.7,28.5,29.86,North,5,3.0,3.0,35,0.00,,,0.00,VWS V14.01,2013-10-15 10:00:00,
2013-10-15 03:02:00,55.4,28.9,29.86,North,5,1.0,3.0,36,0.00,,,0.00,VWS V14.01,2013-10-15 10:02:00,
2013-10-15 03:05:00,55.3,28.8,29.86,North,5,2.0,3.0,36,0.00,,,0.00,VWS V14.01,2013-10-15 10:05:00,
2013-10-15 03:07:00,55.2,28.7,29.86,North,5,0.0,3.0,36,0.00,,,0.00,VWS V14.01,2013-10-15 10:07:00,
2013-10-15 03:10:00,55.1,28.6,29.86,North,5,1.0,3.0,36,0.00,,,0.00,VWS V14.01,2013-10-15 10:10:00,
2013-10-15 03:12:00,55.0,28.6,29.86,North,5,2.0,3.0,36,0.00,,,0.00,VWS V14.01,2013-10-15 10:12:00,
2013-10-15 03:15:00,54.9,28.5,29.86,North,5,0.0,3.0,36,0.00,,,0.00,VWS V14.01,2013-10-15 10:15:00,
2013-10-15 03:17:00,54.8,28.4,29.86,North,5,1.0,3.0,36,0.00,,,0.00,VWS V14.01,2013-10-15 10:17:00,
2013-10-15 03:20:00,54.8,28.4,29.86,North,5,1.0,3.0,36,0.00,,,0.00,VWS V14.01,2013-10-15 10:20:00,
2013-10-15 03:22:00,54.8,28.4,29.86,North,5,1.0,3.0,36,0.00,,,0.00,VWS V14.01,2013-10-15 10:22:00,
2013-10-15 03:25:00,54.8,28.4,29.86,North,5,3.0,3.0,36,0.00,,,0.00,VWS V14.01,2013-10-15 10:25:00,
2013-10-15 03:27:00,54.6,28.2,29.86,North,5,0.0,3.0,36,0.00,,,0.00,VWS V14.01,2013-10-15 10:27:00,
2013-10-15 03:30:00,54.4,28.0,29.86,North,5,1.0,3.0,36,0.00,,,0.00,VWS V14.01,2013-10-15 10:30:00,
2013-10-15 03:32:00,54.3,28.6,29.86,North,5,2.0,2.0,37,0.00,,,0.00,VWS V14.01,2013-10-15 10:32:00,
2013-10-15 03:35:00,54.2,28.5,29.86,North,5,1.0,2.0,37,0.00,,,0.00,VWS V14.01,2013-10-15 10:35:00,
2013-10-15 03:37:00,54.1,28.4,29.86,North,5,2.0,2.0,37,0.00,,,0.00,VWS V14.01,2013-10-15 10:37:00,
2013-10-15 03:40:00,54.0,28.3,29.86,North,5,0.0,3.0,37,0.00,,,0.00,VWS V14.01,2013-10-15 10:40:00,
2013-10-15 03:42:00,53.9,28.2,29.85,North,5,2.0,2.0,37,0.00,,,0.00,VWS V14.01,2013-10-15 10:42:00,
2013-10-15 03:45:00,53.9,28.2,29.85,North,5,1.0,3.0,37,0.00,,,0.00,VWS V14.01,2013-10-15 10:45:00,
2013-10-15 03:47:00,54.0,28.3,29.85,North,5,1.0,2.0,37,0.00,,,0.00,VWS V14.01,2013-10-15 10:47:00,
2013-10-15 03:50:00,54.1,28.4,29.85,North,5,1.0,3.0,37,0.00,,,0.00,VWS V14.01,2013-10-15 10:50:00,
2013-10-15 03:52:00,54.2,28.5,29.85,North,5,1.0,4.0,37,0.00,,,0.00,VWS V14.01,2013-10-15 10:52:00,
2013-10-15 03:55:00,54.2,28.5,29.85,NNE,12,2.0,4.0,37,0.00,,,0.00,VWS V14.01,2013-10-15 10:55:00,
2013-10-15 03:57:00,54.1,28.4,29.86,NNE,13,0.0,3.0,37,0.00,,,0.00,VWS V14.01,2013-10-15 10:57:00,
2013-10-15 04:00:00,54.1,28.4,29.86,NNE,15,3.0,4.0,37,0.00,,,0.00,VWS V14.01,2013-10-15 11:00:00,
2013-10-15 04:02:00,54.1,28.4,29.86,NNE,15,2.0,4.0,37,0.00,,,0.00,VWS V14.01,2013-10-15 11:02:00,
2013-10-15 04:05:00,54.0,28.3,29.86,NNE,16,2.0,4.0,37,0.00,,,0.00,VWS V14.01,2013-10-15 11:05:00,
2013-10-15 04:07:00,53.9,28.9,29.86,NNE,16,1.0,3.0,38,0.00,,,0.00,VWS V14.01,2013-10-15 11:07:00,
2013-10-15 04:10:00,53.7,28.7,29.86,NNE,16,1.0,3.0,38,0.00,,,0.00,VWS V14.01,2013-10-15 11:10:00,
2013-10-15 04:12:00,53.6,28.6,29.86,North,10,2.0,3.0,38,0.00,,,0.00,VWS V14.01,2013-10-15 11:12:00,
2013-10-15 04:15:00,53.7,28.7,29.86,NNE,12,1.0,3.0,38,0.00,,,0.00,VWS V14.01,2013-10-15 11:15:00,
2013-10-15 04:17:00,53.8,28.8,29.86,NNE,17,2.0,4.0,38,0.00,,,0.00,VWS V14.01,2013-10-15 11:17:00,
2013-10-15 04:20:00,54.1,29.1,29.86,NNE,22,1.0,4.0,38,0.00,,,0.00,VWS V14.01,2013-10-15 11:20:00,
2013-10-15 04:22:00,54.3,28.6,29.86,NNE,22,0.0,1.0,37,0.00,,,0.00,VWS V14.01,2013-10-15 11:22:00,
2013-10-15 04:25:00,54.4,28.7,29.86,NNE,22,0.0,2.0,37,0.00,,,0.00,VWS V14.01,2013-10-15 11:25:00,
2013-10-15 04:27:00,54.3,28.6,29.86,NNE,32,2.0,2.0,37,0.00,,,0.00,VWS V14.01,2013-10-15 11:27:00,
2013-10-15 04:30:00,54.3,28.6,29.86,NNE,26,3.0,4.0,37,0.00,,,0.00,VWS V14.01,2013-10-15 11:30:00,
2013-10-15 04:32:00,54.2,28.5,29.86,NNE,22,3.0,5.0,37,0.00,,,0.00,VWS V14.01,2013-10-15 11:32:00,
2013-10-15 04:35:00,54.1,28.4,29.86,NNE,25,3.0,5.0,37,0.00,,,0.00,VWS V14.01,2013-10-15 11:35:00,
2013-10-15 04:37:00,54.0,28.3,29.86,NNE,24,2.0,3.0,37,0.00,,,0.00,VWS V14.01,2013-10-15 11:37:00,
2013-10-15 04:40:00,54.0,28.3,29.86,NNE,26,2.0,3.0,37,0.00,,,0.00,VWS V14.01,2013-10-15 11:40:00,
2013-10-15 04:42:00,53.8,28.2,29.86,NNE,26,0.0,2.0,37,0.00,,,0.00,VWS V14.01,2013-10-15 11:42:00,
2013-10-15 04:45:00,53.5,27.9,29.86,NNE,26,0.0,2.0,37,0.00,,,0.00,VWS V14.01,2013-10-15 11:45:00,
2013-10-15 04:47:00,53.2,28.3,29.86,NNE,26,0.0,0.0,38,0.00,,,0.00,VWS V14.01,2013-10-15 11:47:00,
2013-10-15 04:50:00,53.0,28.7,29.86,NNE,26,0.0,0.0,39,0.00,,,0.00,VWS V14.01,2013-10-15 11:50:00,
2013-10-15 04:52:00,52.6,28.4,29.86,NNE,26,0.0,0.0,39,0.00,,,0.00,VWS V14.01,2013-10-15 11:52:00,
2013-10-15 04:55:00,52.4,28.2,29.86,NNE,26,0.0,0.0,39,0.00,,,0.00,VWS V14.01,2013-10-15 11:55:00,
2013-10-15 04:57:00,52.4,28.2,29.86,NNE,26,1.0,1.0,39,0.00,,,0.00,VWS V14.01,2013-10-15 11:57:00,
2013-10-15 05:00:00,52.4,28.2,29.86,NNE,26,1.0,2.0,39,0.00,,,0.00,VWS V14.01,2013-10-15 12:00:00,
2013-10-15 05:02:00,52.4,28.2,29.86,NNE,26,0.0,2.0,39,0.00,,,0.00,VWS V14.01,2013-10-15 12:02:00,
2013-10-15 05:05:00,52.3,28.1,29.86,NNE,26,0.0,2.0,39,0.00,,,0.00,VWS V14.01,2013-10-15 12:05:00,
2013-10-15 05:07:00,52.3,28.1,29.86,NNE,26,1.0,2.0,39,0.00,,,0.00,VWS V14.01,2013-10-15 12:07:00,
2013-10-15 05:10:00,52.5,28.3,29.86,NNE,26,1.0,2.0,39,0.00,,,0.00,VWS V14.01,2013-10-15 12:10:00,
2013-10-15 05:12:00,52.5,28.3,29.86,NNE,26,0.0,3.0,39,0.00,,,0.00,VWS V14.01,2013-10-15 12:12:00,
2013-10-15 05:15:00,52.2,28.0,29.86,NNE,26,1.0,3.0,39,0.00,,,0.00,VWS V14.01,2013-10-15 12:15:00,
2013-10-15 05:17:00,51.9,27.7,29.86,NNE,24,1.0,3.0,39,0.00,,,0.00,VWS V14.01,2013-10-15 12:17:00,
2013-10-15 05:20:00,52.1,27.9,29.86,NNE,24,0.0,3.0,39,0.00,,,0.00,VWS V14.01,2013-10-15 12:20:00,
2013-10-15 05:22:00,52.2,27.4,29.86,NNE,24,2.0,2.0,38,0.00,,,0.00,VWS V14.01,2013-10-15 12:22:00,
2013-10-15 05:25:00,52.2,28.0,29.86,NNE,24,0.0,2.0,39,0.00,,,0.00,VWS V14.01,2013-10-15 12:25:00,
2013-10-15 05:27:00,51.8,27.6,29.86,NNE,24,1.0,2.0,39,0.00,,,0.00,VWS V14.01,2013-10-15 12:27:00,
2013-10-15 05:30:00,51.6,27.5,29.86,NNE,24,1.0,2.0,39,0.00,,,0.00,VWS V14.01,2013-10-15 12:30:00,
2013-10-15 05:32:00,51.4,27.3,29.86,NNE,23,1.0,2.0,39,0.00,,,0.00,VWS V14.01,2013-10-15 12:32:00,
2013-10-15 05:35:00,51.3,27.2,29.86,NNE,23,1.0,2.0,39,0.00,,,0.00,VWS V14.01,2013-10-15 12:35:00,
2013-10-15 05:37:00,51.2,27.1,29.86,NNE,23,0.0,1.0,39,0.00,,,0.00,VWS V14.01,2013-10-15 12:37:00,
2013-10-15 05:40:00,51.0,27.5,29.86,NNE,23,0.0,1.0,40,0.00,,,0.00,VWS V14.01,2013-10-15 12:40:00,
2013-10-15 05:42:00,51.0,26.9,29.87,NNE,23,0.0,1.0,39,0.00,,,0.00,VWS V14.01,2013-10-15 12:42:00,
2013-10-15 05:45:00,51.0,27.5,29.87,NNE,23,0.0,1.0,40,0.00,,,0.00,VWS V14.01,2013-10-15 12:45:00,
2013-10-15 05:47:00,51.1,27.0,29.87,NNE,24,0.0,0.0,39,0.00,,,0.00,VWS V14.01,2013-10-15 12:47:00,
2013-10-15 05:50:00,51.1,27.0,29.87,NNE,23,0.0,0.0,39,0.00,,,0.00,VWS V14.01,2013-10-15 12:50:00,
2013-10-15 05:52:00,50.8,27.4,29.87,NNE,23,1.0,2.0,40,0.00,,,0.00,VWS V14.01,2013-10-15 12:52:00,
2013-10-15 05:55:00,50.7,27.3,29.87,NNE,23,0.0,2.0,40,0.00,,,0.00,VWS V14.01,2013-10-15 12:55:00,
2013-10-15 05:57:00,50.9,27.5,29.87,NNE,24,0.0,0.0,40,0.00,,,0.00,VWS V14.01,2013-10-15 12:57:00,
2013-10-15 06:00:00,51.1,27.6,29.87,NNE,23,0.0,0.0,40,0.00,,,0.00,VWS V14.01,2013-10-15 13:00:00,
2013-10-15 06:02:00,51.4,27.3,29.87,NNE,23,1.0,4.0,39,0.00,,,0.00,VWS V14.01,2013-10-15 13:02:00,
2013-10-15 06:05:00,51.2,27.1,29.87,NNE,23,0.0,4.0,39,0.00,,,0.00,VWS V14.01,2013-10-15 13:05:00,
2013-10-15 06:07:00,50.8,27.4,29.87,NNE,23,0.0,0.0,40,0.00,,,0.00,VWS V14.01,2013-10-15 13:07:00,
2013-10-15 06:10:00,50.7,27.3,29.87,NNE,23,0.0,2.0,40,0.00,,,0.00,VWS V14.01,2013-10-15 13:10:00,
2013-10-15 06:12:00,50.7,27.3,29.87,NNE,23,1.0,3.0,40,0.00,,,0.00,VWS V14.01,2013-10-15 13:12:00,
2013-10-15 06:15:00,50.7,27.3,29.87,NNE,23,1.0,3.0,40,0.00,,,0.00,VWS V14.01,2013-10-15 13:15:00,
2013-10-15 06:18:00,50.7,27.3,29.87,NNE,23,1.0,2.0,40,0.00,,,0.00,VWS V14.01,2013-10-15 13:18:00,
2013-10-15 06:20:00,50.8,27.4,29.87,NNE,23,2.0,3.0,40,0.00,,,0.00,VWS V14.01,2013-10-15 13:20:00,
2013-10-15 06:23:00,51.2,27.7,29.87,NNE,23,3.0,3.0,40,0.00,,,0.00,VWS V14.01,2013-10-15 13:23:00,
2013-10-15 06:25:00,51.5,27.4,29.87,NNE,23,1.0,3.0,39,0.00,,,0.00,VWS V14.01,2013-10-15 13:25:00,
2013-10-15 06:28:00,51.5,27.4,29.88,NNE,22,1.0,3.0,39,0.00,,,0.00,VWS V14.01,2013-10-15 13:28:00,
2013-10-15 06:30:00,51.5,27.4,29.88,NNE,22,2.0,3.0,39,0.00,,,0.00,VWS V14.01,2013-10-15 13:30:00,
2013-10-15 06:33:00,51.4,27.9,29.88,NNE,22,0.0,2.0,40,0.00,,,0.00,VWS V14.01,2013-10-15 13:33:00,
2013-10-15 06:35:00,51.1,27.6,29.88,NNE,22,2.0,2.0,40,0.00,,,0.00,VWS V14.01,2013-10-15 13:35:00,
2013-10-15 06:38:00,50.8,27.4,29.88,NNE,22,2.0,3.0,40,0.00,,,0.00,VWS V14.01,2013-10-15 13:38:00,
2013-10-15 06:40:00,51.0,27.5,29.88,NNE,22,1.0,3.0,40,0.00,,,0.00,VWS V14.01,2013-10-15 13:40:00,
2013-10-15 06:43:00,52.1,27.9,29.88,NNE,22,0.0,3.0,39,0.00,,,0.00,VWS V14.01,2013-10-15 13:43:00,
2013-10-15 06:45:00,52.7,28.5,29.88,NNE,20,0.0,3.0,39,0.00,,,0.00,VWS V14.01,2013-10-15 13:45:00,
2013-10-15 06:48:00,53.4,28.5,29.88,NNE,20,1.0,2.0,38,0.00,,,0.00,VWS V14.01,2013-10-15 13:48:00,
2013-10-15 06:50:00,54.1,28.4,29.89,NNE,20,3.0,4.0,37,0.00,,,0.00,VWS V14.01,2013-10-15 13:50:00,
2013-10-15 06:53:00,55.3,28.8,29.89,NNE,20,1.0,3.0,36,0.00,,,0.00,VWS V14.01,2013-10-15 13:53:00,
2013-10-15 06:55:00,55.8,29.3,29.88,NNE,20,2.0,3.0,36,0.00,,,0.00,VWS V14.01,2013-10-15 13:55:00,
2013-10-15 06:58:00,56.6,29.3,29.88,NNE,19,0.0,2.0,35,0.00,,,0.00,VWS V14.01,2013-10-15 13:58:00,
2013-10-15 07:00:00,57.2,29.1,29.88,NNE,19,1.0,2.0,34,0.00,,,0.00,VWS V14.01,2013-10-15 14:00:00,
2013-10-15 07:03:00,58.2,30.0,29.89,NNW,329,2.0,3.0,34,0.00,,,0.00,VWS V14.01,2013-10-15 14:03:00,
2013-10-15 07:05:00,58.6,31.0,29.88,NNW,329,0.0,3.0,35,0.00,,,0.00,VWS V14.01,2013-10-15 14:05:00,
2013-10-15 07:08:00,59.2,30.9,29.89,NNW,329,0.0,1.0,34,0.00,,,0.00,VWS V14.01,2013-10-15 14:08:00,
2013-10-15 07:10:00,59.6,31.2,29.89,North,5,3.0,4.0,34,0.00,,,0.00,VWS V14.01,2013-10-15 14:10:00,
2013-10-15 07:13:00,60.3,31.1,29.89,North,5,0.0,3.0,33,0.00,,,0.00,VWS V14.01,2013-10-15 14:13:00,
2013-10-15 07:15:00,60.7,32.2,29.89,North,5,0.0,3.0,34,0.00,,,0.00,VWS V14.01,2013-10-15 14:15:00,
2013-10-15 07:18:00,61.2,31.9,29.89,North,5,0.0,2.0,33,0.00,,,0.00,VWS V14.01,2013-10-15 14:18:00,
2013-10-15 07:20:00,61.5,32.2,29.89,North,5,0.0,2.0,33,0.00,,,0.00,VWS V14.01,2013-10-15 14:20:00,
2013-10-15 07:23:00,61.9,31.7,29.89,North,5,0.0,1.0,32,0.00,,,0.00,VWS V14.01,2013-10-15 14:23:00,
2013-10-15 07:25:00,62.2,32.0,29.89,North,5,1.0,1.0,32,0.00,,,0.00,VWS V14.01,2013-10-15 14:25:00,
2013-10-15 07:28:00,63.2,32.1,29.89,North,5,0.0,1.0,31,0.00,,,0.00,VWS V14.01,2013-10-15 14:28:00,
2013-10-15 07:30:00,64.0,32.0,29.89,North,5,0.0,1.0,30,0.00,,,0.00,VWS V14.01,2013-10-15 14:30:00,
2013-10-15 07:33:00,64.2,32.2,29.89,North,5,0.0,1.0,30,0.00,,,0.00,VWS V14.01,2013-10-15 14:33:00,
2013-10-15 07:35:00,64.1,32.1,29.89,North,5,0.0,1.0,30,0.00,,,0.00,VWS V14.01,2013-10-15 14:35:00,
2013-10-15 07:38:00,64.7,32.6,29.89,North,5,0.0,1.0,30,0.00,,,0.00,VWS V14.01,2013-10-15 14:38:00,
2013-10-15 07:40:00,65.0,32.8,29.89,North,5,2.0,2.0,30,0.00,,,0.00,VWS V14.01,2013-10-15 14:40:00,
2013-10-15 07:43:00,65.4,33.2,29.89,North,5,0.0,2.0,30,0.00,,,0.00,VWS V14.01,2013-10-15 14:43:00,
2013-10-15 07:45:00,65.3,32.3,29.89,North,5,0.0,2.0,29,0.00,,,0.00,VWS V14.01,2013-10-15 14:45:00,
2013-10-15 07:48:00,65.6,34.2,29.89,North,5,0.0,0.0,31,0.00,,,0.00,VWS V14.01,2013-10-15 14:48:00,
2013-10-15 07:50:00,66.3,34.0,29.89,North,5,0.0,0.0,30,0.00,,,0.00,VWS V14.01,2013-10-15 14:50:00,
2013-10-15 07:53:00,66.8,34.4,29.89,North,5,0.0,1.0,30,0.00,,,0.00,VWS V14.01,2013-10-15 14:53:00,
2013-10-15 07:55:00,66.9,34.5,29.89,North,360,0.0,2.0,30,0.00,,,0.00,VWS V14.01,2013-10-15 14:55:00,
2013-10-15 07:58:00,67.2,34.8,29.89,WSW,256,1.0,3.0,30,0.00,,,0.00,VWS V14.01,2013-10-15 14:58:00,
2013-10-15 08:00:00,67.7,34.3,29.89,WSW,246,0.0,4.0,29,0.00,,,0.00,VWS V14.01,2013-10-15 15:00:00,
2013-10-15 08:03:00,67.7,34.3,29.89,WSW,246,0.0,3.0,29,0.00,,,0.00,VWS V14.01,2013-10-15 15:03:00,
2013-10-15 08:05:00,67.8,34.4,29.89,WSW,246,0.0,3.0,29,0.00,,,0.00,VWS V14.01,2013-10-15 15:05:00,
2013-10-15 08:08:00,68.0,34.6,29.89,WSW,254,0.0,3.0,29,0.00,,,0.00,VWS V14.01,2013-10-15 15:08:00,
2013-10-15 08:10:00,68.2,34.8,29.89,WSW,254,1.0,3.0,29,0.00,,,0.00,VWS V14.01,2013-10-15 15:10:00,
2013-10-15 08:13:00,68.0,34.6,29.89,SW,225,3.0,4.0,29,0.00,,,0.00,VWS V14.01,2013-10-15 15:13:00,
2013-10-15 08:15:00,68.2,34.8,29.89,SW,217,3.0,4.0,29,0.00,,,0.00,VWS V14.01,2013-10-15 15:15:00,
2013-10-15 08:18:00,68.3,34.0,29.89,SW,217,0.0,3.0,28,0.00,,,0.00,VWS V14.01,2013-10-15 15:18:00,
2013-10-15 08:20:00,68.7,35.2,29.89,SSW,207,2.0,4.0,29,0.00,,,0.00,VWS V14.01,2013-10-15 15:20:00,
2013-10-15 08:23:00,69.0,34.6,29.89,SSW,202,1.0,5.0,28,0.00,,,0.00,VWS V14.01,2013-10-15 15:23:00,
2013-10-15 08:25:00,69.2,34.7,29.89,SSW,207,0.0,5.0,28,0.00,,,0.00,VWS V14.01,2013-10-15 15:25:00,
2013-10-15 08:28:00,69.3,33.9,29.89,SSW,213,0.0,4.0,27,0.00,,,0.00,VWS V14.01,2013-10-15 15:28:00,
2013-10-15 08:30:00,69.5,34.1,29.89,SSW,213,1.0,4.0,27,0.00,,,0.00,VWS V14.01,2013-10-15 15:30:00,
2013-10-15 08:33:00,69.3,34.8,29.90,WSW,242,3.0,3.0,28,0.00,,,0.00,VWS V14.01,2013-10-15 15:33:00,
2013-10-15 08:35:00,69.5,35.0,29.89,WSW,242,1.0,3.0,28,0.00,,,0.00,VWS V14.01,2013-10-15 15:35:00,
2013-10-15 08:38:00,70.0,34.5,29.89,WSW,242,2.0,2.0,27,0.00,,,0.00,VWS V14.01,2013-10-15 15:38:00,
2013-10-15 08:40:00,70.0,34.5,29.89,WSW,239,0.0,3.0,27,0.00,,,0.00,VWS V14.01,2013-10-15 15:40:00,
2013-10-15 08:43:00,70.0,34.5,29.89,SSW,197,3.0,5.0,27,0.00,,,0.00,VWS V14.01,2013-10-15 15:43:00,
2013-10-15 08:45:00,69.9,34.4,29.89,SSW,210,0.0,5.0,27,0.00,,,0.00,VWS V14.01,2013-10-15 15:45:00,
2013-10-15 08:48:00,70.0,35.4,29.89,SSW,210,2.0,3.0,28,0.00,,,0.00,VWS V14.01,2013-10-15 15:48:00,
2013-10-15 08:50:00,70.2,35.6,29.89,SSW,210,0.0,3.0,28,0.00,,,0.00,VWS V14.01,2013-10-15 15:50:00,
2013-10-15 08:53:00,70.6,34.1,29.89,WSW,256,0.0,3.0,26,0.00,,,0.00,VWS V14.01,2013-10-15 15:53:00,
2013-10-15 08:55:00,70.9,35.3,29.89,West,261,2.0,5.0,27,0.00,,,0.00,VWS V14.01,2013-10-15 15:55:00,
2013-10-15 08:58:00,70.7,35.1,29.89,WSW,250,2.0,3.0,27,0.00,,,0.00,VWS V14.01,2013-10-15 15:58:00,
2013-10-15 09:00:00,70.8,35.2,29.89,SW,223,2.0,4.0,27,0.00,,,0.00,VWS V14.01,2013-10-15 16:00:00,
2013-10-15 09:03:00,70.9,34.3,29.89,SW,222,2.0,5.0,26,0.00,,,0.00,VWS V14.01,2013-10-15 16:03:00,
2013-10-15 09:05:00,71.1,34.5,29.89,SW,222,1.0,5.0,26,0.00,,,0.00,VWS V14.01,2013-10-15 16:05:00,
2013-10-15 09:08:00,71.2,34.6,29.89,WSW,246,0.0,2.0,26,0.00,,,0.00,VWS V14.01,2013-10-15 16:08:00,
2013-10-15 09:10:00,71.7,35.0,29.89,WSW,246,1.0,2.0,26,0.00,,,0.00,VWS V14.01,2013-10-15 16:10:00,
2013-10-15 09:13:00,72.5,34.7,29.89,SW,236,0.0,5.0,25,0.00,,,0.00,VWS V14.01,2013-10-15 16:13:00,
2013-10-15 09:15:00,72.1,34.4,29.88,West,267,0.0,5.0,25,0.00,,,0.00,VWS V14.01,2013-10-15 16:15:00,
2013-10-15 09:18:00,71.2,33.6,29.88,West,273,0.0,6.0,25,0.00,,,0.00,VWS V14.01,2013-10-15 16:18:00,
2013-10-15 09:20:00,71.0,34.4,29.88,West,271,2.0,6.0,26,0.00,,,0.00,VWS V14.01,2013-10-15 16:20:00,
2013-10-15 09:23:00,72.3,35.5,29.88,SW,229,2.0,4.0,26,0.00,,,0.00,VWS V14.01,2013-10-15 16:23:00,
2013-10-15 09:25:00,72.5,34.7,29.88,WNW,284,1.0,5.0,25,0.00,,,0.00,VWS V14.01,2013-10-15 16:25:00,
2013-10-15 09:28:00,72.3,35.5,29.88,West,279,6.0,6.0,26,0.00,,,0.00,VWS V14.01,2013-10-15 16:28:00,
2013-10-15 09:30:00,72.5,34.7,29.88,WSW,242,3.0,6.0,25,0.00,,,0.00,VWS V14.01,2013-10-15 16:30:00,
2013-10-15 09:33:00,73.0,34.1,29.88,NW,322,5.0,6.0,24,0.00,,,0.00,VWS V14.01,2013-10-15 16:33:00,
2013-10-15 09:38:00,73.8,34.8,29.88,SW,225,2.0,6.0,24,0.00,,,0.00,VWS V14.01,2013-10-15 16:38:00,
2013-10-15 09:40:00,73.7,34.7,29.88,WSW,254,1.0,6.0,24,0.00,,,0.00,VWS V14.01,2013-10-15 16:40:00,
2013-10-15 09:43:00,73.9,33.8,29.88,WSW,246,0.0,5.0,23,0.00,,,0.00,VWS V14.01,2013-10-15 16:43:00,
2013-10-15 09:45:00,74.0,35.0,29.88,SW,218,8.0,8.0,24,0.00,,,0.00,VWS V14.01,2013-10-15 16:45:00,
2013-10-15 09:48:00,74.4,34.2,29.88,WNW,284,2.0,8.0,23,0.00,,,0.00,VWS V14.01,2013-10-15 16:48:00,
2013-10-15 09:50:00,74.3,34.1,29.88,SW,221,4.0,8.0,23,0.00,,,0.00,VWS V14.01,2013-10-15 16:50:00,
2013-10-15 09:53:00,74.1,35.0,29.88,West,267,4.0,6.0,24,0.00,,,0.00,VWS V14.01,2013-10-15 16:53:00,
2013-10-15 09:58:00,74.8,35.6,29.87,SW,221,0.0,7.0,24,0.00,,,0.00,VWS V14.01,2013-10-15 16:58:00,
2013-10-15 10:00:00,75.3,35.0,29.87,SSW,202,4.0,7.0,23,0.00,,,0.00,VWS V14.01,2013-10-15 17:00:00,
2013-10-15 10:03:00,75.8,35.4,29.87,SSW,199,5.0,6.0,23,0.00,,,0.00,VWS V14.01,2013-10-15 17:03:00,
2013-10-15 10:08:00,72.5,34.7,29.88,WSW,239,5.0,6.0,25,0.00,,,0.00,VWS V14.01,2013-10-15 17:08:00,
2013-10-15 10:13:00,76.0,35.6,29.87,SW,234,4.0,6.0,23,0.00,,,0.00,VWS V14.01,2013-10-15 17:13:00,
2013-10-15 10:15:00,75.5,35.2,29.87,WSW,256,3.0,6.0,23,0.00,,,0.00,VWS V14.01,2013-10-15 17:15:00,
2013-10-15 10:18:00,75.3,36.0,29.87,SW,215,5.0,7.0,24,0.00,,,0.00,VWS V14.01,2013-10-15 17:18:00,
2013-10-15 10:20:00,75.5,35.2,29.87,WSW,251,2.0,7.0,23,0.00,,,0.00,VWS V14.01,2013-10-15 17:20:00,
2013-10-15 10:23:00,76.1,36.7,29.87,WSW,244,5.0,6.0,24,0.00,,,0.00,VWS V14.01,2013-10-15 17:23:00,
2013-10-15 10:25:00,76.2,35.7,29.87,SW,235,0.0,6.0,23,0.00,,,0.00,VWS V14.01,2013-10-15 17:25:00,
2013-10-15 10:28:00,73.9,34.9,29.88,SW,219,7.0,9.0,24,0.00,,,0.00,VWS V14.01,2013-10-15 17:28:00,
2013-10-15 10:30:00,76.2,35.7,29.86,SSW,201,4.0,8.0,23,0.00,,,0.00,VWS V14.01,2013-10-15 17:30:00,
2013-10-15 10:38:00,75.6,35.2,29.87,SW,219,3.0,7.0,23,0.00,,,0.00,VWS V14.01,2013-10-15 17:38:00,
2013-10-15 10:43:00,76.1,35.7,29.87,SW,219,1.0,5.0,23,0.00,,,0.00,VWS V14.01,2013-10-15 17:43:00,
2013-10-15 10:45:00,77.4,36.7,29.86,SW,217,4.0,10.0,23,0.00,,,0.00,VWS V14.01,2013-10-15 17:45:00,
2013-10-15 10:50:00,77.2,36.6,29.86,SW,214,3.0,8.0,23,0.00,,,0.00,VWS V14.01,2013-10-15 17:50:00,
2013-10-15 10:55:00,76.8,37.3,29.86,SW,221,3.0,7.0,24,0.00,,,0.00,VWS V14.01,2013-10-15 17:55:00,
2013-10-15 11:06:00,76.8,36.2,29.87,WSW,255,1.0,7.0,23,0.00,,,0.00,VWS V14.01,2013-10-15 18:06:00,
2013-10-15 11:08:00,76.9,40.4,29.84,South,184,2.0,2.0,27,0.00,,,0.00,VWS V14.01,2013-10-15 18:08:00,
2013-10-15 11:10:00,76.8,40.3,29.85,SW,218,5.0,5.0,27,0.00,,,0.00,VWS V14.01,2013-10-15 18:10:00,
2013-10-15 11:11:00,77.1,36.5,29.86,SW,225,3.0,9.0,23,0.00,,,0.00,VWS V14.01,2013-10-15 18:11:00,
2013-10-15 11:13:00,77.9,39.3,29.85,SW,219,2.0,9.0,25,0.00,,,0.00,VWS V14.01,2013-10-15 18:13:00,
2013-10-15 11:16:00,77.4,36.7,29.86,SW,219,6.0,9.0,23,0.00,,,0.00,VWS V14.01,2013-10-15 18:16:00,
2013-10-15 11:18:00,78.2,39.5,29.84,SW,225,2.0,4.0,25,0.00,,,0.00,VWS V14.01,2013-10-15 18:18:00,
2013-10-15 11:20:00,78.9,40.1,29.84,SSW,213,7.0,7.0,25,0.00,,,0.00,VWS V14.01,2013-10-15 18:20:00,
2013-10-15 11:21:00,77.1,36.5,29.86,SW,219,1.0,8.0,23,0.00,,,0.00,VWS V14.01,2013-10-15 18:21:00,
2013-10-15 11:23:00,78.9,40.1,29.84,SW,217,1.0,8.0,25,0.00,,,0.00,VWS V14.01,2013-10-15 18:23:00,
2013-10-15 11:26:00,76.8,36.2,29.86,West,281,5.0,6.0,23,0.00,,,0.00,VWS V14.01,2013-10-15 18:26:00,
2013-10-15 11:28:00,76.7,40.2,29.84,WSW,246,3.0,5.0,27,0.00,,,0.00,VWS V14.01,2013-10-15 18:28:00,
2013-10-15 11:30:00,77.3,39.8,29.83,SW,219,6.0,9.0,26,0.00,,,0.00,VWS V14.01,2013-10-15 18:30:00,
2013-10-15 11:31:00,77.3,37.7,29.85,SW,217,5.0,9.0,24,0.00,,,0.00,VWS V14.01,2013-10-15 18:31:00,
2013-10-15 11:33:00,77.8,40.2,29.83,SSE,149,4.0,9.0,26,0.00,,,0.00,VWS V14.01,2013-10-15 18:33:00,
2013-10-15 11:35:00,78.5,39.8,29.83,SW,223,7.0,9.0,25,0.00,,,0.00,VWS V14.01,2013-10-15 18:35:00,
2013-10-15 11:36:00,78.3,39.6,29.85,SSW,200,2.0,7.0,25,0.00,,,0.00,VWS V14.01,2013-10-15 18:36:00,
2013-10-15 11:38:00,78.8,42.0,29.83,SW,217,3.0,11.0,27,0.00,,,0.00,VWS V14.01,2013-10-15 18:38:00,
2013-10-15 11:40:00,78.5,40.8,29.83,SSW,210,2.0,11.0,26,0.00,,,0.00,VWS V14.01,2013-10-15 18:40:00,
2013-10-15 11:43:00,79.2,43.3,29.83,SW,221,4.0,10.0,28,0.00,,,0.00,VWS V14.01,2013-10-15 18:43:00,
2013-10-15 11:45:00,79.0,43.2,29.83,West,277,0.0,10.0,28,0.00,,,0.00,VWS V14.01,2013-10-15 18:45:00,
2013-10-15 11:48:00,78.2,39.5,29.84,SSW,192,4.0,9.0,25,0.00,,,0.00,VWS V14.01,2013-10-15 18:48:00,
2013-10-15 11:50:00,79.2,41.4,29.83,SSW,198,2.0,8.0,26,0.00,,,0.00,VWS V14.01,2013-10-15 18:50:00,
2013-10-15 11:53:00,79.5,41.7,29.83,SW,227,1.0,9.0,26,0.00,,,0.00,VWS V14.01,2013-10-15 18:53:00,
2013-10-15 11:58:00,78.4,38.7,29.84,West,274,2.0,8.0,24,0.00,,,0.00,VWS V14.01,2013-10-15 18:58:00,
2013-10-15 12:00:00,78.7,37.8,29.82,SW,217,5.0,10.0,23,0.00,,,0.00,VWS V14.01,2013-10-15 19:00:00,
2013-10-15 12:03:00,79.2,37.1,29.82,South,180,4.0,10.0,22,0.00,,,0.00,VWS V14.01,2013-10-15 19:03:00,
2013-10-15 12:05:00,79.1,38.2,29.82,SSW,193,9.0,11.0,23,0.00,,,0.00,VWS V14.01,2013-10-15 19:05:00,
2013-10-15 12:08:00,78.4,37.6,29.82,South,187,4.0,9.0,23,0.00,,,0.00,VWS V14.01,2013-10-15 19:08:00,
2013-10-15 12:13:00,78.7,36.7,29.82,West,266,2.0,10.0,22,0.00,,,0.00,VWS V14.01,2013-10-15 19:13:00,
2013-10-15 12:15:00,78.3,36.4,29.82,WNW,286,5.0,10.0,22,0.00,,,0.00,VWS V14.01,2013-10-15 19:15:00,
2013-10-15 12:18:00,78.2,36.3,29.81,West,281,0.0,5.0,22,0.00,,,0.00,VWS V14.01,2013-10-15 19:18:00,
2013-10-15 12:20:00,78.7,37.8,29.81,SW,226,1.0,5.0,23,0.00,,,0.00,VWS V14.01,2013-10-15 19:20:00,
2013-10-15 12:23:00,80.0,36.6,29.81,West,281,8.0,9.0,21,0.00,,,0.00,VWS V14.01,2013-10-15 19:23:00,
2013-10-15 12:25:00,80.0,36.6,29.81,SW,223,6.0,12.0,21,0.00,,,0.00,VWS V14.01,2013-10-15 19:25:00,
2013-10-15 12:28:00,79.4,38.4,29.83,SW,216,4.0,9.0,23,0.00,,,0.00,VWS V14.01,2013-10-15 19:28:00,
2013-10-15 12:30:00,78.7,36.7,29.81,West,271,0.0,8.0,22,0.00,,,0.00,VWS V14.01,2013-10-15 19:30:00,
2013-10-15 12:33:00,76.9,35.2,29.81,NW,313,0.0,4.0,22,0.00,,,0.00,VWS V14.01,2013-10-15 19:33:00,
2013-10-15 12:35:00,77.6,36.9,29.81,SSW,206,2.0,4.0,23,0.00,,,0.00,VWS V14.01,2013-10-15 19:35:00,
2013-10-15 12:38:00,79.8,35.2,29.81,SSW,196,6.0,11.0,20,0.00,,,0.00,VWS V14.01,2013-10-15 19:38:00,
2013-10-15 12:40:00,80.0,34.1,29.81,SSW,209,5.0,11.0,19,0.00,,,0.00,VWS V14.01,2013-10-15 19:40:00,
2013-10-15 12:43:00,78.3,37.5,29.82,SSW,197,0.0,9.0,23,0.00,,,0.00,VWS V14.01,2013-10-15 19:43:00,
2013-10-15 12:45:00,79.4,34.9,29.81,SW,221,4.0,12.0,20,0.00,,,0.00,VWS V14.01,2013-10-15 19:45:00,
2013-10-15 12:48:00,79.6,35.0,29.81,SW,221,10.0,10.0,20,0.00,,,0.00,VWS V14.01,2013-10-15 19:48:00,
2013-10-15 12:50:00,79.6,35.0,29.81,SSW,210,3.0,10.0,20,0.00,,,0.00,VWS V14.01,2013-10-15 19:50:00,
2013-10-15 12:53:00,79.6,35.0,29.80,SW,215,5.0,8.0,20,0.00,,,0.00,VWS V14.01,2013-10-15 19:53:00,
2013-10-15 12:55:00,79.5,35.0,29.81,SW,217,5.0,8.0,20,0.00,,,0.00,VWS V14.01,2013-10-15 19:55:00,
2013-10-15 12:58:00,80.0,35.4,29.81,WSW,244,4.0,6.0,20,0.00,,,0.00,VWS V14.01,2013-10-15 19:58:00,
2013-10-15 13:00:00,80.3,34.3,29.81,SW,225,4.0,6.0,19,0.00,,,0.00,VWS V14.01,2013-10-15 20:00:00,
2013-10-15 13:03:00,81.0,34.9,29.80,SW,217,9.0,9.0,19,0.00,,,0.00,VWS V14.01,2013-10-15 20:03:00,
2013-10-15 13:05:00,80.6,33.2,29.80,SW,227,4.0,10.0,18,0.00,,,0.00,VWS V14.01,2013-10-15 20:05:00,
2013-10-15 13:08:00,79.8,33.9,29.80,SSW,192,4.0,7.0,19,0.00,,,0.00,VWS V14.01,2013-10-15 20:08:00,
2013-10-15 13:10:00,79.6,33.8,29.80,SSW,200,1.0,7.0,19,0.00,,,0.00,VWS V14.01,2013-10-15 20:10:00,
2013-10-15 13:13:00,80.0,34.1,29.80,SW,233,5.0,14.0,19,0.00,,,0.00,VWS V14.01,2013-10-15 20:13:00,
2013-10-15 13:15:00,79.8,32.6,29.80,WNW,285,4.0,14.0,18,0.00,,,0.00,VWS V14.01,2013-10-15 20:15:00,
2013-10-15 13:18:00,79.3,32.2,29.80,West,273,7.0,12.0,18,0.00,,,0.00,VWS V14.01,2013-10-15 20:18:00,
2013-10-15 13:20:00,79.0,31.9,29.80,West,261,8.0,12.0,18,0.00,,,0.00,VWS V14.01,2013-10-15 20:20:00,
2013-10-15 13:23:00,79.3,32.2,29.80,West,266,8.0,8.0,18,0.00,,,0.00,VWS V14.01,2013-10-15 20:23:00,
2013-10-15 13:25:00,78.9,31.8,29.80,SW,234,7.0,8.0,18,0.00,,,0.00,VWS V14.01,2013-10-15 20:25:00,
2013-10-15 13:28:00,79.3,32.2,29.80,SW,231,4.0,10.0,18,0.00,,,0.00,VWS V14.01,2013-10-15 20:28:00,
2013-10-15 13:30:00,79.7,32.5,29.80,WSW,238,0.0,10.0,18,0.00,,,0.00,VWS V14.01,2013-10-15 20:30:00,
2013-10-15 13:33:00,80.2,31.5,29.80,SSW,209,4.0,12.0,17,0.00,,,0.00,VWS V14.01,2013-10-15 20:33:00,
2013-10-15 13:35:00,79.8,31.1,29.80,SW,221,2.0,12.0,17,0.00,,,0.00,VWS V14.01,2013-10-15 20:35:00,
2013-10-15 13:38:00,80.1,32.8,29.80,SW,234,7.0,10.0,18,0.00,,,0.00,VWS V14.01,2013-10-15 20:38:00,
2013-10-15 13:40:00,80.3,30.1,29.80,SSW,210,7.0,10.0,16,0.00,,,0.00,VWS V14.01,2013-10-15 20:40:00,
2013-10-15 13:43:00,79.7,29.6,29.80,WSW,258,6.0,11.0,16,0.00,,,0.00,VWS V14.01,2013-10-15 20:43:00,
2013-10-15 13:45:00,79.1,29.1,29.80,SW,234,2.0,11.0,16,0.00,,,0.00,VWS V14.01,2013-10-15 20:45:00,
2013-10-15 13:48:00,78.8,30.4,29.80,West,281,2.0,9.0,17,0.00,,,0.00,VWS V14.01,2013-10-15 20:48:00,
2013-10-15 13:50:00,79.1,32.0,29.80,WSW,252,6.0,9.0,18,0.00,,,0.00,VWS V14.01,2013-10-15 20:50:00,
2013-10-15 13:53:00,79.4,30.8,29.80,SW,214,3.0,9.0,17,0.00,,,0.00,VWS V14.01,2013-10-15 20:53:00,
2013-10-15 13:55:00,79.3,29.3,29.80,West,280,4.0,9.0,16,0.00,,,0.00,VWS V14.01,2013-10-15 20:55:00,
2013-10-15 13:58:00,79.4,29.3,29.80,WSW,240,1.0,11.0,16,0.00,,,0.00,VWS V14.01,2013-10-15 20:58:00,
2013-10-15 14:00:00,79.6,29.5,29.80,WSW,246,0.0,11.0,16,0.00,,,0.00,VWS V14.01,2013-10-15 21:00:00,
2013-10-15 14:03:00,79.5,27.9,29.81,SW,225,7.0,12.0,15,0.00,,,0.00,VWS V14.01,2013-10-15 21:03:00,
2013-10-15 14:05:00,79.4,27.8,29.80,SW,225,0.0,12.0,15,0.00,,,0.00,VWS V14.01,2013-10-15 21:05:00,
2013-10-15 14:08:00,79.3,27.7,29.80,SSW,205,1.0,8.0,15,0.00,,,0.00,VWS V14.01,2013-10-15 21:08:00,
2013-10-15 14:10:00,79.3,27.7,29.80,SW,224,6.0,8.0,15,0.00,,,0.00,VWS V14.01,2013-10-15 21:10:00,
2013-10-15 14:13:00,79.1,29.1,29.80,South,188,4.0,8.0,16,0.00,,,0.00,VWS V14.01,2013-10-15 21:13:00,
2013-10-15 14:15:00,79.3,30.8,29.80,WSW,249,3.0,10.0,17,0.00,,,0.00,VWS V14.01,2013-10-15 21:15:00,
2013-10-15 14:18:00,79.0,29.0,29.80,SW,219,5.0,10.0,16,0.00,,,0.00,VWS V14.01,2013-10-15 21:18:00,
2013-10-15 14:20:00,78.8,28.9,29.80,West,262,9.0,13.0,16,0.00,,,0.00,VWS V14.01,2013-10-15 21:20:00,
2013-10-15 14:23:00,78.9,28.9,29.80,SW,232,4.0,9.0,16,0.00,,,0.00,VWS V14.01,2013-10-15 21:23:00,
2013-10-15 14:25:00,79.1,29.1,29.80,SSW,207,5.0,9.0,16,0.00,,,0.00,VWS V14.01,2013-10-15 21:25:00,
2013-10-15 14:28:00,78.9,28.9,29.80,SW,216,6.0,10.0,16,0.00,,,0.00,VWS V14.01,2013-10-15 21:28:00,
2013-10-15 14:30:00,78.7,30.3,29.80,SW,219,2.0,10.0,17,0.00,,,0.00,VWS V14.01,2013-10-15 21:30:00,
2013-10-15 14:33:00,78.4,28.5,29.80,WSW,252,0.0,11.0,16,0.00,,,0.00,VWS V14.01,2013-10-15 21:33:00,
2013-10-15 14:35:00,78.2,29.9,29.80,West,266,2.0,11.0,17,0.00,,,0.00,VWS V14.01,2013-10-15 21:35:00,
2013-10-15 14:38:00,77.8,29.5,29.80,NW,310,5.0,6.0,17,0.00,,,0.00,VWS V14.01,2013-10-15 21:38:00,
2013-10-15 14:40:00,77.5,29.3,29.80,WNW,294,0.0,6.0,17,0.00,,,0.00,VWS V14.01,2013-10-15 21:40:00,
2013-10-15 14:43:00,77.7,29.5,29.80,SW,229,5.0,8.0,17,0.00,,,0.00,VWS V14.01,2013-10-15 21:43:00,
2013-10-15 14:45:00,78.2,29.9,29.80,SW,217,5.0,8.0,17,0.00,,,0.00,VWS V14.01,2013-10-15 21:45:00,
2013-10-15 14:48:00,78.5,28.6,29.80,West,275,1.0,9.0,16,0.00,,,0.00,VWS V14.01,2013-10-15 21:48:00,
2013-10-15 14:50:00,78.1,28.3,29.80,WNW,291,0.0,9.0,16,0.00,,,0.00,VWS V14.01,2013-10-15 21:50:00,
2013-10-15 14:53:00,77.7,29.5,29.80,WNW,300,0.0,5.0,17,0.00,,,0.00,VWS V14.01,2013-10-15 21:53:00,
2013-10-15 14:55:00,77.6,27.9,29.80,NW,310,0.0,7.0,16,0.00,,,0.00,VWS V14.01,2013-10-15 21:55:00,
2013-10-15 14:58:00,77.5,27.8,29.80,NW,311,3.0,7.0,16,0.00,,,0.00,VWS V14.01,2013-10-15 21:58:00,
2013-10-15 15:00:00,77.3,27.7,29.80,WNW,300,2.0,7.0,16,0.00,,,0.00,VWS V14.01,2013-10-15 22:00:00,
2013-10-15 15:03:00,77.9,28.1,29.80,WNW,292,4.0,11.0,16,0.00,,,0.00,VWS V14.01,2013-10-15 22:03:00,
2013-10-15 15:05:00,78.0,28.2,29.80,West,263,9.0,11.0,16,0.00,,,0.00,VWS V14.01,2013-10-15 22:05:00,
2013-10-15 15:08:00,77.9,28.1,29.80,West,271,5.0,9.0,16,0.00,,,0.00,VWS V14.01,2013-10-15 22:08:00,
2013-10-15 15:10:00,77.8,28.1,29.80,WSW,238,2.0,9.0,16,0.00,,,0.00,VWS V14.01,2013-10-15 22:10:00,
2013-10-15 15:13:00,77.6,27.9,29.80,WNW,289,1.0,3.0,16,0.00,,,0.00,VWS V14.01,2013-10-15 22:13:00,
2013-10-15 15:15:00,77.5,27.8,29.80,SW,217,3.0,4.0,16,0.00,,,0.00,VWS V14.01,2013-10-15 22:15:00,
2013-10-15 15:18:00,78.1,28.3,29.80,SW,221,3.0,5.0,16,0.00,,,0.00,VWS V14.01,2013-10-15 22:18:00,
2013-10-15 15:20:00,78.2,28.4,29.80,WSW,240,1.0,5.0,16,0.00,,,0.00,VWS V14.01,2013-10-15 22:20:00,
2013-10-15 15:23:00,78.0,28.2,29.80,WSW,257,3.0,7.0,16,0.00,,,0.00,VWS V14.01,2013-10-15 22:23:00,
2013-10-15 15:25:00,77.9,28.1,29.80,WSW,253,1.0,7.0,16,0.00,,,0.00,VWS V14.01,2013-10-15 22:25:00,
2013-10-15 15:28:00,78.1,28.3,29.80,WNW,284,6.0,6.0,16,0.00,,,0.00,VWS V14.01,2013-10-15 22:28:00,
2013-10-15 15:30:00,78.0,26.6,29.80,WNW,286,3.0,6.0,15,0.00,,,0.00,VWS V14.01,2013-10-15 22:30:00,
2013-10-15 15:33:00,78.0,26.6,29.79,West,281,10.0,10.0,15,0.00,,,0.00,VWS V14.01,2013-10-15 22:33:00,
2013-10-15 15:35:00,77.6,27.9,29.80,WNW,291,0.0,10.0,16,0.00,,,0.00,VWS V14.01,2013-10-15 22:35:00,
2013-10-15 15:38:00,77.8,28.1,29.79,West,269,3.0,8.0,16,0.00,,,0.00,VWS V14.01,2013-10-15 22:38:00,
2013-10-15 15:40:00,77.9,28.1,29.79,West,269,0.0,8.0,16,0.00,,,0.00,VWS V14.01,2013-10-15 22:40:00,
2013-10-15 15:43:00,77.8,28.1,29.79,SW,221,1.0,5.0,16,0.00,,,0.00,VWS V14.01,2013-10-15 22:43:00,
2013-10-15 15:45:00,77.5,27.8,29.80,SW,224,1.0,5.0,16,0.00,,,0.00,VWS V14.01,2013-10-15 22:45:00,
2013-10-15 15:48:00,77.4,27.7,29.80,West,259,1.0,6.0,16,0.00,,,0.00,VWS V14.01,2013-10-15 22:48:00,
2013-10-15 15:50:00,77.4,27.7,29.80,West,260,0.0,6.0,16,0.00,,,0.00,VWS V14.01,2013-10-15 22:50:00,
2013-10-15 15:53:00,77.3,27.7,29.80,WNW,291,3.0,7.0,16,0.00,,,0.00,VWS V14.01,2013-10-15 22:53:00,
2013-10-15 15:55:00,77.1,27.5,29.80,WNW,291,1.0,7.0,16,0.00,,,0.00,VWS V14.01,2013-10-15 22:55:00,
2013-10-15 15:58:00,76.7,27.2,29.80,West,271,0.0,5.0,16,0.00,,,0.00,VWS V14.01,2013-10-15 22:58:00,
2013-10-15 16:00:00,76.7,27.2,29.80,West,273,1.0,5.0,16,0.00,,,0.00,VWS V14.01,2013-10-15 23:00:00,
2013-10-15 16:03:00,76.6,27.1,29.80,WNW,298,0.0,3.0,16,0.00,,,0.00,VWS V14.01,2013-10-15 23:03:00,
2013-10-15 16:05:00,76.7,27.2,29.80,WSW,255,0.0,4.0,16,0.00,,,0.00,VWS V14.01,2013-10-15 23:05:00,
2013-10-15 16:08:00,77.1,27.5,29.80,WSW,244,2.0,6.0,16,0.00,,,0.00,VWS V14.01,2013-10-15 23:08:00,
2013-10-15 16:10:00,77.0,27.4,29.80,WSW,244,2.0,6.0,16,0.00,,,0.00,VWS V14.01,2013-10-15 23:10:00,
2013-10-15 16:13:00,76.7,27.2,29.80,WSW,244,0.0,3.0,16,0.00,,,0.00,VWS V14.01,2013-10-15 23:13:00,
2013-10-15 16:15:00,76.7,27.2,29.80,WSW,244,0.0,3.0,16,0.00,,,0.00,VWS V14.01,2013-10-15 23:15:00,
2013-10-15 16:18:00,76.7,27.2,29.80,West,272,1.0,4.0,16,0.00,,,0.00,VWS V14.01,2013-10-15 23:18:00,
2013-10-15 16:20:00,76.6,27.1,29.80,West,267,0.0,4.0,16,0.00,,,0.00,VWS V14.01,2013-10-15 23:20:00,
2013-10-15 16:23:00,76.4,26.9,29.80,WSW,246,3.0,4.0,16,0.00,,,0.00,VWS V14.01,2013-10-15 23:23:00,
2013-10-15 16:25:00,76.4,26.9,29.80,WSW,246,4.0,4.0,16,0.00,,,0.00,VWS V14.01,2013-10-15 23:25:00,
2013-10-15 16:28:00,76.1,26.7,29.80,WNW,298,4.0,6.0,16,0.00,,,0.00,VWS V14.01,2013-10-15 23:28:00,
2013-10-15 16:30:00,76.0,26.6,29.80,West,272,0.0,8.0,16,0.00,,,0.00,VWS V14.01,2013-10-15 23:30:00,
2013-10-15 16:33:00,75.7,27.8,29.80,SW,225,2.0,4.0,17,0.00,,,0.00,VWS V14.01,2013-10-15 23:33:00,
2013-10-15 16:35:00,75.7,27.8,29.80,West,259,1.0,4.0,17,0.00,,,0.00,VWS V14.01,2013-10-15 23:35:00,
2013-10-15 16:38:00,75.4,27.6,29.80,West,261,0.0,5.0,17,0.00,,,0.00,VWS V14.01,2013-10-15 23:38:00,
2013-10-15 16:40:00,75.3,27.5,29.80,West,261,0.0,5.0,17,0.00,,,0.00,VWS V14.01,2013-10-15 23:40:00,
2013-10-15 16:43:00,75.1,27.4,29.80,West,261,0.0,2.0,17,0.00,,,0.00,VWS V14.01,2013-10-15 23:43:00,
2013-10-15 16:45:00,75.1,27.4,29.80,West,261,0.0,2.0,17,0.00,,,0.00,VWS V14.01,2013-10-15 23:45:00,
2013-10-15 16:48:00,74.9,27.2,29.80,West,270,1.0,2.0,17,0.00,,,0.00,VWS V14.01,2013-10-15 23:48:00,
2013-10-15 16:50:00,74.9,27.2,29.80,WNW,296,0.0,3.0,17,0.00,,,0.00,VWS V14.01,2013-10-15 23:50:00,
2013-10-15 16:53:00,74.6,27.0,29.80,WNW,287,0.0,5.0,17,0.00,,,0.00,VWS V14.01,2013-10-15 23:53:00,
2013-10-15 16:55:00,74.6,27.0,29.80,WNW,287,0.0,5.0,17,0.00,,,0.00,VWS V14.01,2013-10-15 23:55:00,
2013-10-15 16:58:00,74.3,28.1,29.80,WNW,287,0.0,3.0,18,0.00,,,0.00,VWS V14.01,2013-10-15 23:58:00,
2013-10-15 17:00:00,74.2,28.0,29.80,WNW,287,0.0,3.0,18,0.00,,,0.00,VWS V14.01,2013-10-16 00:00:00,
2013-10-15 17:04:00,74.0,27.9,29.80,WNW,287,0.0,1.0,18,0.00,,,0.00,VWS V14.01,2013-10-16 00:04:00,
2013-10-15 17:05:00,73.9,27.8,29.80,WNW,287,0.0,1.0,18,0.00,,,0.00,VWS V14.01,2013-10-16 00:05:00,
2013-10-15 17:09:00,73.5,27.4,29.80,WNW,287,0.0,1.0,18,0.00,,,0.00,VWS V14.01,2013-10-16 00:09:00,
2013-10-15 17:10:00,73.4,27.4,29.80,West,279,0.0,1.0,18,0.00,,,0.00,VWS V14.01,2013-10-16 00:10:00,
2013-10-15 17:14:00,72.9,28.3,29.80,West,279,0.0,1.0,19,0.00,,,0.00,VWS V14.01,2013-10-16 00:14:00,
2013-10-15 17:15:00,72.8,28.2,29.80,West,279,0.0,1.0,19,0.00,,,0.00,VWS V14.01,2013-10-16 00:15:00,
2013-10-15 17:19:00,72.6,28.0,29.80,West,279,0.0,0.0,19,0.00,,,0.00,VWS V14.01,2013-10-16 00:19:00,
2013-10-15 17:20:00,72.6,28.0,29.80,West,279,1.0,1.0,19,0.00,,,0.00,VWS V14.01,2013-10-16 00:20:00,
2013-10-15 17:24:00,72.5,27.9,29.81,West,279,0.0,2.0,19,0.00,,,0.00,VWS V14.01,2013-10-16 00:24:00,
2013-10-15 17:25:00,72.4,27.9,29.81,West,279,0.0,2.0,19,0.00,,,0.00,VWS V14.01,2013-10-16 00:25:00,
2013-10-15 17:29:00,71.6,27.2,29.81,West,280,0.0,2.0,19,0.00,,,0.00,VWS V14.01,2013-10-16 00:29:00,
2013-10-15 17:30:00,71.5,27.1,29.81,WNW,286,1.0,2.0,19,0.00,,,0.00,VWS V14.01,2013-10-16 00:30:00,
2013-10-15 17:34:00,70.9,27.9,29.81,NW,326,3.0,4.0,20,0.00,,,0.00,VWS V14.01,2013-10-16 00:34:00,
2013-10-15 17:35:00,70.8,27.8,29.81,NW,326,2.0,4.0,20,0.00,,,0.00,VWS V14.01,2013-10-16 00:35:00,
2013-10-15 17:39:00,70.3,27.4,29.81,NW,318,3.0,4.0,20,0.00,,,0.00,VWS V14.01,2013-10-16 00:39:00,
2013-10-15 17:40:00,70.3,27.4,29.81,NW,320,3.0,4.0,20,0.00,,,0.00,VWS V14.01,2013-10-16 00:40:00,
2013-10-15 17:44:00,70.0,27.1,29.81,NW,319,1.0,4.0,20,0.00,,,0.00,VWS V14.01,2013-10-16 00:44:00,
2013-10-15 17:45:00,70.0,27.1,29.82,NW,318,3.0,4.0,20,0.00,,,0.00,VWS V14.01,2013-10-16 00:45:00,
2013-10-15 17:49:00,70.0,27.1,29.82,NW,322,5.0,7.0,20,0.00,,,0.00,VWS V14.01,2013-10-16 00:49:00,
2013-10-15 17:50:00,70.0,27.1,29.82,NW,314,4.0,7.0,20,0.00,,,0.00,VWS V14.01,2013-10-16 00:50:00,
2013-10-15 17:54:00,69.9,27.0,29.82,NW,315,6.0,7.0,20,0.00,,,0.00,VWS V14.01,2013-10-16 00:54:00,
2013-10-15 17:55:00,69.9,27.0,29.82,NW,313,4.0,8.0,20,0.00,,,0.00,VWS V14.01,2013-10-16 00:55:00,
2013-10-15 17:59:00,69.7,26.9,29.82,NW,319,4.0,6.0,20,0.00,,,0.00,VWS V14.01,2013-10-16 00:59:00,
2013-10-15 18:00:00,69.6,26.8,29.82,NNW,327,5.0,7.0,20,0.00,,,0.00,VWS V14.01,2013-10-16 01:00:00,
2013-10-15 18:04:00,69.4,26.6,29.82,NW,319,4.0,7.0,20,0.00,,,0.00,VWS V14.01,2013-10-16 01:04:00,
2013-10-15 18:05:00,69.4,27.8,29.83,NW,320,4.0,7.0,21,0.00,,,0.00,VWS V14.01,2013-10-16 01:05:00,
2013-10-15 18:09:00,69.2,27.6,29.83,NW,322,6.0,6.0,21,0.00,,,0.00,VWS V14.01,2013-10-16 01:09:00,
2013-10-15 18:10:00,69.2,27.6,29.83,NW,308,5.0,7.0,21,0.00,,,0.00,VWS V14.01,2013-10-16 01:10:00,
2013-10-15 18:14:00,69.0,27.5,29.83,NNW,327,3.0,7.0,21,0.00,,,0.00,VWS V14.01,2013-10-16 01:14:00,
2013-10-15 18:15:00,68.9,27.4,29.83,NNW,329,4.0,7.0,21,0.00,,,0.00,VWS V14.01,2013-10-16 01:15:00,
2013-10-15 18:19:00,68.7,27.2,29.83,NNW,327,3.0,7.0,21,0.00,,,0.00,VWS V14.01,2013-10-16 01:19:00,
2013-10-15 18:20:00,68.6,27.1,29.83,NW,322,7.0,7.0,21,0.00,,,0.00,VWS V14.01,2013-10-16 01:20:00,
2013-10-15 18:24:00,68.4,27.0,29.83,NW,321,4.0,7.0,21,0.00,,,0.00,VWS V14.01,2013-10-16 01:24:00,
2013-10-15 18:25:00,68.4,27.0,29.83,NNW,335,6.0,7.0,21,0.00,,,0.00,VWS V14.01,2013-10-16 01:25:00,
2013-10-15 18:29:00,68.3,26.9,29.84,NW,313,6.0,8.0,21,0.00,,,0.00,VWS V14.01,2013-10-16 01:29:00,
2013-10-15 18:30:00,68.2,26.8,29.84,NW,315,2.0,8.0,21,0.00,,,0.00,VWS V14.01,2013-10-16 01:30:00,
2013-10-15 18:34:00,68.1,26.7,29.84,NW,319,7.0,7.0,21,0.00,,,0.00,VWS V14.01,2013-10-16 01:34:00,
2013-10-15 18:35:00,68.1,26.7,29.84,NW,319,6.0,7.0,21,0.00,,,0.00,VWS V14.01,2013-10-16 01:35:00,
2013-10-15 18:39:00,67.9,26.6,29.84,NNW,327,4.0,8.0,21,0.00,,,0.00,VWS V14.01,2013-10-16 01:39:00,
2013-10-15 18:40:00,67.9,26.6,29.84,NW,319,6.0,8.0,21,0.00,,,0.00,VWS V14.01,2013-10-16 01:40:00,
2013-10-15 18:44:00,67.8,27.6,29.84,NW,321,6.0,10.0,22,0.00,,,0.00,VWS V14.01,2013-10-16 01:44:00,
2013-10-15 18:45:00,67.7,27.5,29.84,NW,306,6.0,10.0,22,0.00,,,0.00,VWS V14.01,2013-10-16 01:45:00,
2013-10-15 18:49:00,67.7,27.5,29.84,NW,319,4.0,10.0,22,0.00,,,0.00,VWS V14.01,2013-10-16 01:49:00,
2013-10-15 18:50:00,67.7,27.5,29.84,NW,309,7.0,10.0,22,0.00,,,0.00,VWS V14.01,2013-10-16 01:50:00,
2013-10-15 18:54:00,67.6,27.4,29.85,NW,322,5.0,9.0,22,0.00,,,0.00,VWS V14.01,2013-10-16 01:54:00,
2013-10-15 18:55:00,67.5,27.4,29.85,WNW,302,3.0,9.0,22,0.00,,,0.00,VWS V14.01,2013-10-16 01:55:00,
2013-10-15 18:59:00,67.3,27.2,29.85,NNW,337,5.0,8.0,22,0.00,,,0.00,VWS V14.01,2013-10-16 01:59:00,
2013-10-15 19:00:00,67.2,27.1,29.85,NW,326,5.0,8.0,22,0.00,,,0.00,VWS V14.01,2013-10-16 02:00:00,
2013-10-15 19:04:00,67.0,26.9,29.85,NNW,336,3.0,6.0,22,0.00,,,0.00,VWS V14.01,2013-10-16 02:04:00,
2013-10-15 19:05:00,67.0,26.9,29.85,NW,318,6.0,6.0,22,0.00,,,0.00,VWS V14.01,2013-10-16 02:05:00,
2013-10-15 19:09:00,66.8,26.8,29.85,NNW,332,2.0,7.0,22,0.00,,,0.00,VWS V14.01,2013-10-16 02:09:00,
2013-10-15 19:10:00,66.7,27.8,29.85,NNW,342,4.0,7.0,23,0.00,,,0.00,VWS V14.01,2013-10-16 02:10:00,
2013-10-15 19:14:00,66.6,27.7,29.85,NW,325,4.0,9.0,23,0.00,,,0.00,VWS V14.01,2013-10-16 02:14:00,
2013-10-15 19:15:00,66.5,27.6,29.85,NW,313,2.0,9.0,23,0.00,,,0.00,VWS V14.01,2013-10-16 02:15:00,
2013-10-15 19:19:00,66.4,27.5,29.85,NNW,329,6.0,7.0,23,0.00,,,0.00,VWS V14.01,2013-10-16 02:19:00,
2013-10-15 19:20:00,66.4,27.5,29.85,NNW,329,5.0,7.0,23,0.00,,,0.00,VWS V14.01,2013-10-16 02:20:00,
2013-10-15 19:24:00,66.4,27.5,29.86,NNW,336,0.0,7.0,23,0.00,,,0.00,VWS V14.01,2013-10-16 02:24:00,
2013-10-15 19:25:00,66.4,27.5,29.86,NNW,344,3.0,7.0,23,0.00,,,0.00,VWS V14.01,2013-10-16 02:25:00,
2013-10-15 19:29:00,66.2,27.3,29.86,NW,323,2.0,5.0,23,0.00,,,0.00,VWS V14.01,2013-10-16 02:29:00,
2013-10-15 19:30:00,66.2,27.3,29.86,NW,323,3.0,5.0,23,0.00,,,0.00,VWS V14.01,2013-10-16 02:30:00,
2013-10-15 19:34:00,65.9,27.1,29.86,NW,323,0.0,3.0,23,0.00,,,0.00,VWS V14.01,2013-10-16 02:34:00,
2013-10-15 19:35:00,65.8,27.0,29.86,NW,323,0.0,3.0,23,0.00,,,0.00,VWS V14.01,2013-10-16 02:35:00,
2013-10-15 19:39:00,65.2,26.5,29.86,NW,324,1.0,1.0,23,0.00,,,0.00,VWS V14.01,2013-10-16 02:39:00,
2013-10-15 19:40:00,65.1,26.4,29.86,North,349,0.0,2.0,23,0.00,,,0.00,VWS V14.01,2013-10-16 02:40:00,
2013-10-15 19:44:00,64.2,26.7,29.87,ENE,74,0.0,3.0,24,0.00,,,0.00,VWS V14.01,2013-10-16 02:44:00,
2013-10-15 19:45:00,64.0,26.5,29.86,ENE,74,0.0,3.0,24,0.00,,,0.00,VWS V14.01,2013-10-16 02:45:00,
2013-10-15 19:49:00,63.2,26.8,29.87,ENE,74,1.0,2.0,25,0.00,,,0.00,VWS V14.01,2013-10-16 02:49:00,
2013-10-15 19:50:00,63.1,26.7,29.87,ENE,74,0.0,2.0,25,0.00,,,0.00,VWS V14.01,2013-10-16 02:50:00,
2013-10-15 19:54:00,62.8,26.5,29.87,ENE,74,0.0,2.0,25,0.00,,,0.00,VWS V14.01,2013-10-16 02:54:00,
2013-10-15 19:55:00,62.8,26.5,29.87,ENE,74,0.0,2.0,25,0.00,,,0.00,VWS V14.01,2013-10-16 02:55:00,
2013-10-15 19:59:00,62.3,27.0,29.87,ENE,74,1.0,2.0,26,0.00,,,0.00,VWS V14.01,2013-10-16 02:59:00,
2013-10-15 20:00:00,62.2,26.9,29.87,ENE,74,1.0,2.0,26,0.00,,,0.00,VWS V14.01,2013-10-16 03:00:00,
2013-10-15 20:04:00,62.5,27.2,29.87,ENE,74,0.0,1.0,26,0.00,,,0.00,VWS V14.01,2013-10-16 03:04:00,
2013-10-15 20:05:00,62.5,27.2,29.87,ENE,74,0.0,1.0,26,0.00,,,0.00,VWS V14.01,2013-10-16 03:05:00,
2013-10-15 20:09:00,62.8,27.4,29.88,East,80,0.0,4.0,26,0.00,,,0.00,VWS V14.01,2013-10-16 03:09:00,
2013-10-15 20:10:00,62.7,27.4,29.88,East,80,0.0,4.0,26,0.00,,,0.00,VWS V14.01,2013-10-16 03:10:00,
2013-10-15 20:14:00,62.7,27.4,29.88,East,80,0.0,2.0,26,0.00,,,0.00,VWS V14.01,2013-10-16 03:14:00,
2013-10-15 20:15:00,62.7,27.4,29.88,East,80,0.0,2.0,26,0.00,,,0.00,VWS V14.01,2013-10-16 03:15:00,
2013-10-15 20:19:00,62.5,27.2,29.88,East,80,1.0,4.0,26,0.00,,,0.00,VWS V14.01,2013-10-16 03:19:00,
2013-10-15 20:20:00,62.6,27.3,29.88,East,80,0.0,4.0,26,0.00,,,0.00,VWS V14.01,2013-10-16 03:20:00,
2013-10-15 20:24:00,62.7,27.4,29.88,East,80,0.0,1.0,26,0.00,,,0.00,VWS V14.01,2013-10-16 03:24:00,
2013-10-15 20:25:00,62.6,27.3,29.88,East,80,0.0,1.0,26,0.00,,,0.00,VWS V14.01,2013-10-16 03:25:00,
2013-10-15 20:29:00,62.2,26.9,29.88,East,80,0.0,0.0,26,0.00,,,0.00,VWS V14.01,2013-10-16 03:29:00,
2013-10-15 20:30:00,62.2,26.9,29.88,East,80,0.0,0.0,26,0.00,,,0.00,VWS V14.01,2013-10-16 03:30:00,
2013-10-15 20:34:00,61.8,26.6,29.89,East,80,0.0,0.0,26,0.00,,,0.00,VWS V14.01,2013-10-16 03:34:00,
2013-10-15 20:35:00,61.7,26.5,29.89,East,80,0.0,0.0,26,0.00,,,0.00,VWS V14.01,2013-10-16 03:35:00,
2013-10-15 20:39:00,61.5,26.3,29.89,East,80,0.0,0.0,26,0.00,,,0.00,VWS V14.01,2013-10-16 03:39:00,
2013-10-15 20:40:00,61.5,26.3,29.89,East,80,0.0,0.0,26,0.00,,,0.00,VWS V14.01,2013-10-16 03:40:00,
2013-10-15 20:44:00,61.2,26.1,29.89,East,80,0.0,1.0,26,0.00,,,0.00,VWS V14.01,2013-10-16 03:44:00,
2013-10-15 20:45:00,61.2,26.1,29.89,East,80,0.0,1.0,26,0.00,,,0.00,VWS V14.01,2013-10-16 03:45:00,
2013-10-15 20:49:00,61.3,26.1,29.89,East,80,0.0,1.0,26,0.00,,,0.00,VWS V14.01,2013-10-16 03:49:00,
2013-10-15 20:50:00,61.3,26.1,29.89,East,80,0.0,1.0,26,0.00,,,0.00,VWS V14.01,2013-10-16 03:50:00,
2013-10-15 20:54:00,61.5,26.3,29.89,East,80,0.0,2.0,26,0.00,,,0.00,VWS V14.01,2013-10-16 03:54:00,
2013-10-15 20:55:00,61.4,26.2,29.89,East,80,1.0,2.0,26,0.00,,,0.00,VWS V14.01,2013-10-16 03:55:00,
2013-10-15 20:59:00,61.5,26.3,29.89,NE,49,0.0,3.0,26,0.00,,,0.00,VWS V14.01,2013-10-16 03:59:00,
2013-10-15 21:00:00,61.6,26.4,29.89,NE,49,0.0,3.0,26,0.00,,,0.00,VWS V14.01,2013-10-16 04:00:00,
2013-10-15 21:04:00,61.8,25.6,29.89,NE,49,0.0,2.0,25,0.00,,,0.00,VWS V14.01,2013-10-16 04:04:00,
2013-10-15 21:05:00,61.7,26.5,29.89,NE,49,0.0,2.0,26,0.00,,,0.00,VWS V14.01,2013-10-16 04:05:00,
2013-10-15 21:09:00,60.8,25.7,29.89,NE,49,0.0,1.0,26,0.00,,,0.00,VWS V14.01,2013-10-16 04:09:00,
2013-10-15 21:10:00,60.7,25.6,29.89,NE,49,0.0,1.0,26,0.00,,,0.00,VWS V14.01,2013-10-16 04:10:00,
2013-10-15 21:14:00,59.9,25.9,29.90,NE,49,0.0,0.0,27,0.00,,,0.00,VWS V14.01,2013-10-16 04:14:00,
2013-10-15 21:15:00,59.8,25.8,29.90,NE,49,0.0,0.0,27,0.00,,,0.00,VWS V14.01,2013-10-16 04:15:00,
2013-10-15 21:19:00,58.9,25.9,29.89,NE,49,1.0,2.0,28,0.00,,,0.00,VWS V14.01,2013-10-16 04:19:00,
2013-10-15 21:20:00,59.0,26.0,29.90,NE,49,0.0,2.0,28,0.00,,,0.00,VWS V14.01,2013-10-16 04:20:00,
2013-10-15 21:24:00,59.6,26.5,29.90,NE,49,0.0,2.0,28,0.00,,,0.00,VWS V14.01,2013-10-16 04:24:00,
2013-10-15 21:25:00,59.5,26.4,29.90,NE,49,0.0,2.0,28,0.00,,,0.00,VWS V14.01,2013-10-16 04:25:00,
2013-10-15 21:29:00,59.4,26.3,29.90,NE,49,0.0,1.0,28,0.00,,,0.00,VWS V14.01,2013-10-16 04:29:00,
2013-10-15 21:30:00,59.4,26.3,29.90,NE,49,0.0,1.0,28,0.00,,,0.00,VWS V14.01,2013-10-16 04:30:00,
2013-10-15 21:34:00,59.1,26.0,29.90,NE,49,0.0,1.0,28,0.00,,,0.00,VWS V14.01,2013-10-16 04:34:00,
2013-10-15 21:35:00,59.1,26.0,29.90,NE,49,0.0,1.0,28,0.00,,,0.00,VWS V14.01,2013-10-16 04:35:00,
2013-10-15 21:39:00,59.0,26.0,29.90,NE,49,0.0,1.0,28,0.00,,,0.00,VWS V14.01,2013-10-16 04:39:00,
2013-10-15 21:40:00,59.0,26.0,29.90,NE,49,0.0,1.0,28,0.00,,,0.00,VWS V14.01,2013-10-16 04:40:00,
2013-10-15 21:44:00,58.3,25.4,29.90,NE,49,0.0,0.0,28,0.00,,,0.00,VWS V14.01,2013-10-16 04:44:00,
2013-10-15 21:45:00,58.3,25.4,29.90,NE,49,0.0,0.0,28,0.00,,,0.00,VWS V14.01,2013-10-16 04:45:00,
2013-10-15 21:49:00,58.0,25.1,29.90,NE,49,0.0,0.0,28,0.00,,,0.00,VWS V14.01,2013-10-16 04:49:00,
2013-10-15 21:50:00,58.0,25.1,29.90,NE,49,0.0,0.0,28,0.00,,,0.00,VWS V14.01,2013-10-16 04:50:00,
2013-10-15 21:54:00,57.4,25.4,29.90,NE,49,0.0,0.0,29,0.00,,,0.00,VWS V14.01,2013-10-16 04:54:00,
2013-10-15 21:55:00,57.3,25.3,29.90,NE,49,0.0,0.0,29,0.00,,,0.00,VWS V14.01,2013-10-16 04:55:00,
2013-10-15 21:59:00,56.2,25.2,29.90,NE,49,0.0,1.0,30,0.00,,,0.00,VWS V14.01,2013-10-16 04:59:00,
2013-10-15 22:00:00,56.1,25.1,29.90,NE,49,1.0,2.0,30,0.00,,,0.00,VWS V14.01,2013-10-16 05:00:00,
2013-10-15 22:04:00,55.8,24.9,29.90,NE,49,1.0,2.0,30,0.00,,,0.00,VWS V14.01,2013-10-16 05:04:00,
2013-10-15 22:05:00,55.8,24.9,29.90,NE,49,2.0,2.0,30,0.00,,,0.00,VWS V14.01,2013-10-16 05:05:00,
2013-10-15 22:09:00,55.9,24.9,29.90,NE,49,1.0,3.0,30,0.00,,,0.00,VWS V14.01,2013-10-16 05:09:00,
2013-10-15 22:10:00,56.0,25.0,29.90,NE,49,2.0,3.0,30,0.00,,,0.00,VWS V14.01,2013-10-16 05:10:00,
2013-10-15 22:14:00,57.1,26.0,29.90,NE,49,0.0,3.0,30,0.00,,,0.00,VWS V14.01,2013-10-16 05:14:00,
2013-10-15 22:15:00,57.1,25.2,29.90,NE,49,0.0,3.0,29,0.00,,,0.00,VWS V14.01,2013-10-16 05:15:00,
2013-10-15 22:19:00,57.8,25.8,29.90,NE,49,0.0,2.0,29,0.00,,,0.00,VWS V14.01,2013-10-16 05:19:00,
2013-10-15 22:20:00,57.8,25.8,29.90,NE,49,0.0,2.0,29,0.00,,,0.00,VWS V14.01,2013-10-16 05:20:00,
2013-10-15 22:24:00,57.8,24.9,29.90,NE,46,0.0,2.0,28,0.00,,,0.00,VWS V14.01,2013-10-16 05:24:00,
2013-10-15 22:25:00,57.7,25.7,29.90,NE,46,0.0,2.0,29,0.00,,,0.00,VWS V14.01,2013-10-16 05:25:00,
2013-10-15 22:29:00,57.1,25.2,29.90,NE,46,2.0,2.0,29,0.00,,,0.00,VWS V14.01,2013-10-16 05:29:00,
2013-10-15 22:30:00,57.0,25.1,29.90,NE,46,1.0,2.0,29,0.00,,,0.00,VWS V14.01,2013-10-16 05:30:00,
2013-10-15 22:34:00,56.3,25.3,29.90,NE,46,0.0,1.0,30,0.00,,,0.00,VWS V14.01,2013-10-16 05:34:00,
2013-10-15 22:35:00,56.2,25.2,29.90,NE,46,0.0,1.0,30,0.00,,,0.00,VWS V14.01,2013-10-16 05:35:00,
2013-10-15 22:39:00,55.8,24.9,29.90,NE,36,0.0,2.0,30,0.00,,,0.00,VWS V14.01,2013-10-16 05:39:00,
2013-10-15 22:40:00,55.7,24.8,29.90,NE,36,0.0,2.0,30,0.00,,,0.00,VWS V14.01,2013-10-16 05:40:00,
2013-10-15 22:44:00,55.7,24.8,29.90,NE,36,0.0,0.0,30,0.00,,,0.00,VWS V14.01,2013-10-16 05:44:00,
2013-10-15 22:45:00,55.7,24.8,29.90,NE,36,0.0,0.0,30,0.00,,,0.00,VWS V14.01,2013-10-16 05:45:00,
2013-10-15 22:49:00,55.0,24.9,29.90,NE,36,0.0,0.0,31,0.00,,,0.00,VWS V14.01,2013-10-16 05:49:00,
2013-10-15 22:50:00,55.0,24.9,29.90,NE,36,0.0,0.0,31,0.00,,,0.00,VWS V14.01,2013-10-16 05:50:00,
2013-10-15 22:54:00,54.9,24.9,29.90,NE,36,0.0,0.0,31,0.00,,,0.00,VWS V14.01,2013-10-16 05:54:00,
2013-10-15 22:55:00,54.8,24.8,29.90,NE,36,0.0,0.0,31,0.00,,,0.00,VWS V14.01,2013-10-16 05:55:00,
2013-10-15 22:59:00,54.2,24.2,29.90,NE,36,0.0,0.0,31,0.00,,,0.00,VWS V14.01,2013-10-16 05:59:00,
2013-10-15 23:00:00,54.2,24.2,29.90,NE,36,0.0,0.0,31,0.00,,,0.00,VWS V14.01,2013-10-16 06:00:00,
2013-10-15 23:04:00,53.4,24.3,29.90,NE,36,0.0,0.0,32,0.00,,,0.00,VWS V14.01,2013-10-16 06:04:00,
2013-10-15 23:05:00,53.3,24.2,29.90,NE,36,0.0,0.0,32,0.00,,,0.00,VWS V14.01,2013-10-16 06:05:00,
2013-10-15 23:09:00,52.9,23.9,29.90,NE,36,0.0,0.0,32,0.00,,,0.00,VWS V14.01,2013-10-16 06:09:00,
2013-10-15 23:10:00,52.9,23.9,29.90,NE,36,0.0,0.0,32,0.00,,,0.00,VWS V14.01,2013-10-16 06:10:00,
2013-10-15 23:14:00,52.8,23.8,29.90,NE,36,0.0,1.0,32,0.00,,,0.00,VWS V14.01,2013-10-16 06:14:00,
2013-10-15 23:15:00,52.8,23.8,29.90,NE,36,0.0,1.0,32,0.00,,,0.00,VWS V14.01,2013-10-16 06:15:00,
2013-10-15 23:19:00,53.4,24.3,29.90,NE,36,0.0,0.0,32,0.00,,,0.00,VWS V14.01,2013-10-16 06:19:00,
2013-10-15 23:20:00,53.4,24.3,29.90,NE,36,0.0,0.0,32,0.00,,,0.00,VWS V14.01,2013-10-16 06:20:00,
2013-10-15 23:24:00,53.4,23.5,29.91,NE,36,0.0,0.0,31,0.00,,,0.00,VWS V14.01,2013-10-16 06:24:00,
2013-10-15 23:25:00,53.4,23.5,29.91,NE,36,0.0,0.0,31,0.00,,,0.00,VWS V14.01,2013-10-16 06:25:00,
2013-10-15 23:29:00,53.3,23.5,29.90,NE,36,0.0,0.0,31,0.00,,,0.00,VWS V14.01,2013-10-16 06:29:00,
2013-10-15 23:30:00,53.3,23.5,29.91,NE,36,0.0,0.0,31,0.00,,,0.00,VWS V14.01,2013-10-16 06:30:00,
2013-10-15 23:34:00,53.5,23.6,29.91,NE,36,1.0,1.0,31,0.00,,,0.00,VWS V14.01,2013-10-16 06:34:00,
2013-10-15 23:35:00,53.4,23.5,29.91,NE,36,0.0,1.0,31,0.00,,,0.00,VWS V14.01,2013-10-16 06:35:00,
2013-10-15 23:39:00,53.3,23.5,29.91,NE,36,1.0,1.0,31,0.00,,,0.00,VWS V14.01,2013-10-16 06:39:00,
2013-10-15 23:40:00,53.3,23.5,29.91,NE,36,1.0,1.0,31,0.00,,,0.00,VWS V14.01,2013-10-16 06:40:00,
2013-10-15 23:44:00,53.6,23.7,29.91,NE,36,0.0,2.0,31,0.00,,,0.00,VWS V14.01,2013-10-16 06:44:00,
2013-10-15 23:45:00,53.6,23.7,29.91,NE,36,0.0,2.0,31,0.00,,,0.00,VWS V14.01,2013-10-16 06:45:00,
2013-10-15 23:49:00,52.6,22.9,29.91,ENE,57,3.0,4.0,31,0.00,,,0.00,VWS V14.01,2013-10-16 06:49:00,
2013-10-15 23:50:00,52.5,22.8,29.91,ENE,57,3.0,4.0,31,0.00,,,0.00,VWS V14.01,2013-10-16 06:50:00,
2013-10-15 23:54:00,51.5,22.6,29.91,ENE,63,2.0,4.0,32,0.00,,,0.00,VWS V14.01,2013-10-16 06:54:00,
2013-10-15 23:55:00,51.4,22.5,29.91,ENE,63,1.0,4.0,32,0.00,,,0.00,VWS V14.01,2013-10-16 06:55:00,
2013-10-15 23:59:00,51.0,22.9,29.91,ENE,58,1.0,4.0,33,0.00,,,0.00,VWS V14.01,2013-10-16 06:59:00,